Regional Weather Roundup
Issued by NWS Wilmington, NC

Home | Current Version | Previous Version | Text Only | Print | Product List | Glossary On
Versions: 1 2 3 4 5 6 7 8 9 10 11 12 13 14 15 16 17 18 19 20 21 22 23 24 25 26 27 28 29 30 31 32 33 34 35 36 37 38 39 40 41 42 43 44 45 46 47 48 49 50
000
ASUS42 KILM 230312
RWRILM
RWRILM
REGIONAL HOURLY WEATHER ROUNDUP
NATIONAL WEATHER SERVICE WILMINGTON NC
1000 PM EST SUN JAN 22 2017

NOTE: "FAIR" INDICATES FEW OR NO CLOUDS BELOW 12,000 FEET WITH NO
SIGNIFICANT WEATHER AND/OR OBSTRUCTIONS TO VISIBILITY.

...............WFO WILMINGTON COUNTY WARNING AREA...............

......COASTAL NC AND SC COUNTIES......

CITY           SKY/WX    TMP DP  RH WIND       PRES   REMARKS
WILMINGTON     HVY RAIN  58  58 100 NE12      29.45F FOG
N MYRTLE BEACH CLOUDY    59  59 100 E8        29.40F
MYRTLE BEACH   MOCLDY    61  57  88 E12       29.40F

......INLAND NC AND SC COUNTIES.......

CITY           SKY/WX    TMP DP  RH WIND       PRES   REMARKS
LUMBERTON      CLOUDY    60  60 100 SE10G20   29.41S
ELIZABETHTOWN  RAIN      59  59 100 E7G16     29.42F
WHITEVILLE     LGT RAIN  60  59  97 E6        29.43R
FLORENCE       LGT RAIN  60  59  96 E13       29.36F
DARLINGTON     CLOUDY    59  58  96 E12       29.37F
KINGSTREE      LGT RAIN  59  57  94 E8        29.35F
HARTSVILLE     CLOUDY    57  55  94 E9        29.36F
BENNETTSVILLE  CLOUDY    61  61 100 E10       29.36F
CONWAY         RAIN      59  59 100 E7        29.37F
GEORGETOWN     CLOUDY    61  59  94 E9        29.37F
MARION         LGT RAIN  59  57  94 E10       29.38F

....................REST OF NORTH CAROLINA......................

.........EASTERN NC.........

CITY           SKY/WX    TMP DP  RH WIND       PRES   REMARKS
CAPE HATTERAS  FOG       51  50  96 NE9       29.52F VSB 1/2
JACKSONVILLE   LGT RAIN  58  57  97 CALM      29.52R FOG
MOREHEAD CITY  MOCLDY    60  58  92 E9        29.45F
KENANSVILLE    LGT RAIN  59  59 100 E7        29.48F FOG
NEW BERN       CLOUDY    58  57  97 NW5       29.54R
ELIZABETH CITY CLOUDY    50  49  96 N8        29.53S

.........CENTRAL NC.........

CITY           SKY/WX    TMP DP  RH WIND       PRES   REMARKS
RALEIGH DURHAM LGT RAIN  54  53  97 E10       29.50S FOG
ROCKY MOUNT    LGT RAIN  53  53 100 NE6       29.52S FOG
ROANOKE RAPIDS NOT AVBL
FAYETTEVILLE   LGT RAIN  60  58  92 E10       29.42F
HOFFMAN        LGT RAIN  57  57 100 E13G18    29.40F

.........WESTERN NC.........

CITY           SKY/WX    TMP DP  RH WIND       PRES   REMARKS
CHARLOTTE      CLOUDY    57  54  89 E23G29    29.34F
GREENSBORO     LGT RAIN  51  51 100 E15       29.43F
HICKORY        NOT AVBL
BOONE          NOT AVBL
ASHEVILLE      NOT AVBL

.....................REST OF SOUTH CAROLINA.....................

.........EASTERN SC.........

CITY           SKY/WX    TMP DP  RH WIND       PRES   REMARKS
CHARLESTON     CLOUDY    64  62  93 SE16      29.33S
BEAUFORT MCAS  PTCLDY    65  63  93 S7        29.31F
HILTON HEAD    CLEAR     64  64 100 S13G18    29.32F

.........CENTRAL SC.........

CITY           SKY/WX    TMP DP  RH WIND       PRES   REMARKS
COLUMBIA       CLOUDY    61  58  90 E15G23    29.27F
ORANGEBURG     CLOUDY    60  59  96 SE9       29.29F
SUMTER SHAW    CLOUDY    60  58  91 E14G21    29.30F

.........WESTERN SC.........

CITY           SKY/WX    TMP DP  RH WIND       PRES   REMARKS
GREENVILLE     NOT AVBL
ROCK HILL      HVY RAIN  57  56  96 SE10G24   29.33F FOG
ANDERSON       CLOUDY    59  56  89 SE12G22   29.23S
CLEMSON        NOT AVBL
GREENWOOD      CLOUDY    58  55  90 SE10      29.28S


...................COASTAL AND OFFSHORE REPORTS..................

................LOCAL PIERS AND NC RESERVE................


STATION/POSITION TIME  SKY/WX   TEMP    WIND        PRES    VSBY
                                AIR SEA DIR/SP/G
                 (UTC)          (F)     (DEG/KT/KT) (MB)    (MI)
JOHNY MRCER PIER 0248            58 56  350/  9/ 10  997.2
NC RESRV MASNBRO 0145            56      90/  4      997.0
OCEAN CREST PIER NOT AVBL
SPRINGMAID  PIER NOT AVBL


................COASTAL AND OFFSHORE BUOYS................


STATION/POSITION TIME  SKY/WX   TEMP    WIND        PRES    VSBY
                                AIR SEA DIR/SP/G
                 (UTC)          (F)     (DEG/KT/KT) (MB)    (MI)
DIMNDSHOAL 41025 0250            60 71   30/ 12/ 14  999.8F
WVE H/P(F/S)=  4/13 SWL H/P/D(F/S/D)=  3/ 80/13

CAPE LOOKOUT     0300            63      70/ 17/ 18  997.1F
ONSLOW BAY 41036 NOT AVBL
ONSLOW BAY 41064 0208            65 69  180/ 16/ 23  998.8F
ONSLOW BAY 41159 0243               69                N/A
WVE H/P(F/S)=  6/ 8 SWL H/P/D(F/S/D)=  2/ 90/13

MASNBO INL 41110 0229               54                N/A
WVE H/P(F/S)=  4/ 8 SWL H/P/D(F/S/D)=  2/100/13

WILM HARBR 41108 0256               57                N/A
WVE H/P(F/S)=  6/ 7 SWL H/P/D(F/S/D)=  2/130/13

27SE WRITB 41037 0208            68 65  160/ 21/ 27  996.4F
FRYING PAN 41013 0250            69 66  130/ 21/ 27  995.5F
WVE H/P(F/S)=  7/ 8 SWL H/P/D(F/S/D)=  5/190/ 8

SUNST NRSH 41024 0208            59 56  330/ 10/ 16  997.6R
CAPRS NRSH 41029 0208            61 56  140/ 16/ 21  993.0F
EDISTO     41004 0150            68 66  120/ 23/ 29  994.1
WVE H/P(F/S)=  6/ 8 SWL H/P/D(F/S/D)=  3/170/ 8



..........OFFSHORE BUOYS BEYOND 100 NM OFFSHORE...........
.....IN A TRIANGLE---HAT TO BERMUDA TO BAHAMAS TO HAT.....


STATION/POSITION TIME  SKY/WX   TEMP    WIND        PRES    VSBY
                                AIR SEA DIR/SP/G
                 (UTC)          (F)     (DEG/KT/KT) (MB)    (MI)
150E HAT   41001 NOT AVBL
W BERMUDA  41048 0250            71 70  190/ 21/ 27 1008.0F
WVE H/P(F/S)=  6/12 SWL H/P/D(F/S/D)=  3/ 60/12

ATLANTIC S 41049 0250            72 74  250/ 10/ 12 1016.1R
WVE H/P(F/S)=  6/12 SWL H/P/D(F/S/D)=  7/ 10/12

E BAHAMAS  41046 0250            77 78  180/ 12/ 14 1013.4F
WVE H/P(F/S)=  4/13 SWL H/P/D(F/S/D)=  3/13

NE BAHAMAS 41047 0250            74 75  190/ 19/ 25 1011.0R
WVE H/P(F/S)=  6/ 6 SWL H/P/D(F/S/D)=  3/ 50/12

120E CANVRL41010 NOT AVBL

END



USA.gov is the U.S. government's official web portal to all federal, state and local government web resources and services.